Манд

Франция     44°31′13″N   3°30′20″E
темп.,
°C
ветер,
м/с
пор.,
м/с
влажн.,
%
обл.,
%
осадки,
мм/ч
давл.,
гПа
погр.,
м
12 апреля, пн
пн1223:00+1зсз2499100 5.8 1021213
02:000с3890100 6.9 1023765
05:00−3ссз259614 0.0 1025125
08:00−1ссз4108835 0.1 1025956
11:00+1с6127120 0.1 10251070
14:00+3ссз6105610 0.1 10261351
17:00+4ссз712525 0.0 10241530
20:00+1с613655 0.0 10261243
13 апреля, вт
вт1323:00−1с6147918 0.0 10281017
02:00−2с514784 0.0 1029844
05:00−2с514753 0.0 1028808
08:00−2с514777 0.0 1028855
11:00+3с611574 0.0 1027994
14:00+7с58453 0.0 10251380
17:00+7с584319 0.0 10241331
20:00+2ссв51060100 0.0 1026719
14 апреля, ср
ср1423:00−1ссв397394 0.0 1028415
02:00−3св368432 0.0 1028161
05:00−4св35795 0.0 1027135
08:00−3св267518 0.0 1027183
11:00+6св353725 0.0 1023729
14:00+9ссв33295 0.0 10211424
17:00+9ссв43335 0.0 10191753
20:00+4св48574 0.0 1021353
15 апреля, чт
чт1523:00−1св35772 0.0 1025117
02:00−3св24844 0.0 102597
05:00−3св25895 0.0 1025114
08:00−2св27751 0.0 1024276
11:00+5св46370 0.0 1021931
14:00+9ссв44270 0.0 10191493
17:00+9ссв33310 0.0 10171688
20:00+4св37520 0.0 1019257
16 апреля, пт
пт1623:00−1св24730 0.0 102287
02:00−3св22802 0.0 102237
05:00−3св228111 0.0 102140
08:00−1св237391 0.0 1020102
11:00+6ссв223618 0.0 10171313
14:00+10ссз1229100 0.0 10142671
17:00+8св1239100 0.1 10132015
20:00+3юв2483100 1.5 1016224